Location: Rounton
(54.4000°N, 1.3500°W)
Time: 08:05:25
(UTC+01:00)

deb Agena D - Pass Details

Date: 12 June 2023
Orbit: 996 x 1023 km, 100.1° (Epoch: 29 September)

Event Time Altitude Azimuth Distance (km) Brightness Sun altitude
Exits shadow 00:01:50 - 129° (SE) 3,003 ? -11.3°
Reaches altitude 10° 00:02:28 10° 128° (SE) 2,774 ? -11.3°
Maximum altitude 00:08:17 44° 59° (ENE) 1,366 ? -11.5°
Drops below altitude 10° 00:14:07 10° 350° (N) 2,779 ? -11.7°
Sets 00:16:42 0° 344° (NNW) 3,731 ? -11.8°
